User: anonymous   Login
Location: Fauquembergues
(50.6005°N, 2.0987°E)
Time: 20:57:38
(UTC+00:00)
Language:

Cosmos 1666 Rocket - Orbit

View from above orbital plane
View from above orbital plane
View from above satellite
View from above satellite

Ground track
Ground track

The orbit data is extracted from the following two-line orbital elements,

1 15890U 85058B   20272.45798788 +.00000078 +00000-0 +65944-5 0  9996
2 15890 082.5280 218.2795 0019712 223.6122 275.8063 14.83442952881530
Epoch (UTC): 28 September 2020 10:59:30
Eccentricity: 0.0019712
inclination: 82.5280°
perigee height: 604 km
apogee height: 632 km
right ascension of ascending node: 218.2795°
argument of perigee: 223.6122°
revolutions per day: 14.83442952
mean anomaly at epoch: 275.8063°
orbit number at epoch: 88153

The dashed part of the orbit path shows where the satellite is in the earth's shadow,  

DLR